Location: Heiligenberg
(48.5381°N, 7.3897°E)
Time: 19:55:33
(UTC+00:00)

Cosmos 2184 Rocket - Pass Details

Date: 26 May 2022
Orbit: 958 x 1003 km, 82.9° (Epoch: 02 July)

Event Time Altitude Azimuth Distance (km) Brightness Sun altitude
Rises 01:34:28 0° 349° (N) 3,703 7.8 -14.8°
Reaches altitude 10° 01:37:00 10° 347° (NNW) 2,744 7.0 -14.6°
Maximum altitude 01:43:15 73° 265° (W) 1,020 4.0 -14.0°
Enters shadow 01:48:46 13° 183° (S) 2,463 5.6 -13.5°
